Location: Goll?ig?dem
(16.6773°N, 80.7332°E)
Time: 16:23:00
(UTC+00:00)

Feng Yun 1-1 Rocket - Pass Details

Date: 19 May 2025
Orbit: 829 x 932 km, 99.0° (Epoch: 13 June)

Event Time Altitude Azimuth Distance (km) Brightness Sun altitude
Exits shadow 14:55:47 66° 111° (ESE) 940 4.1 -25.2°
Maximum altitude 14:56:17 70° 76° (ENE) 918 4.1 -25.3°
Drops below altitude 10° 15:01:52 10° 354° (N) 2,536 7.1 -26.4°
Sets 15:04:18 0° 352° (N) 3,491 8.0 -26.9°
